Change the Weather History Date:

Monday, December 30, 2013

  Actual Average Record
Temperature  
Mean Temperature -10 °F -  
Max Temperature -2 °F 20 °F 42 °F (2004)
Min Temperature -18 °F 8 °F -18 °F (2013)
Degree Days  
Heating Degree Days 75    
Moisture  
Dew Point -17 °F    
Average Humidity 71    
Maximum Humidity 100    
Minimum Humidity 50    
Precipitation  
Precipitation 0.00 in - - ()
Sea Level Pressure  
Sea Level Pressure 30.10 in    
Wind  
Wind Speed 6 mph (WSW)    
Max Wind Speed 13 mph    
Max Gust Speed -    
Visibility 10 miles    
Events      
Averages and records for this station are not official NWS values.
T = Trace of Precipitation, MM = Missing Value Source: NWS Daily Summary

Daily Weather History Graph

Daily Weather History Graph

Search for Another Location

Airport or City:

Trip Planner

Search our weather history database for the weather conditions in past years. The results will help you decide how hot, cold, wet, or windy it might be!

Date:

Astronomy

Dec. 30, 2013 Rise Set
Actual Time 7:44 AM CST 4:22 PM CST
Civil Twilight 7:09 AM CST 4:57 PM CST
Nautical Twilight 6:31 AM CST 5:35 PM CST
Astronomical Twilight 5:54 AM CST 6:12 PM CST
Moon 5:31 AM CST (12/30) 2:58 PM CST (12/30)
Length of Visible Light 9h 47m
Length of Day
8h 37m
Waning Crescent, 4% of the Moon is Illuminated
Dec 30
Waning Crescent
Jan 1
New
Jan 7
First Quarter
Jan 15
Full
Jan 23
Last Quarter

Hourly Weather History & Observations

Time (CST) Temp. Windchill Dew Point Humidity Pressure Visibility Wind Dir Wind Speed Gust Speed Precip Events Conditions
12:15 AM -9.4 °F -29.8 °F -16.6 °F 71% 30.12 in 5.0 mi WSW 12.7 mph - N/A   Overcast
12:35 AM -9.4 °F -26.8 °F -16.6 °F 71% 30.11 in 5.0 mi WSW 9.2 mph - N/A   Overcast
12:55 AM -11.2 °F -29.0 °F -18.4 °F 70% 30.11 in 7.0 mi WSW 9.2 mph - N/A   Mostly Cloudy
1:15 AM -11.2 °F -27.8 °F -18.4 °F 70% 30.11 in 10.0 mi WSW 8.1 mph - N/A   Mostly Cloudy
1:35 AM -11.2 °F -24.8 °F -20.2 °F 64% 30.11 in 10.0 mi WSW 5.8 mph - N/A   Mostly Cloudy
1:55 AM -11.2 °F -26.4 °F -20.2 °F 64% 30.12 in 10.0 mi WSW 6.9 mph - N/A   Mostly Cloudy
2:15 AM -11.2 °F -26.4 °F -14.8 °F 84% 30.12 in 10.0 mi SW 6.9 mph - N/A   Overcast
2:35 AM -11.2 °F -24.8 °F -20.2 °F 64% 30.12 in 10.0 mi SW 5.8 mph - N/A   Overcast
2:55 AM -11.2 °F -27.8 °F -16.6 °F 77% 30.11 in 10.0 mi SW 8.1 mph - N/A   Overcast
3:15 AM -11.2 °F -26.4 °F -18.4 °F 70% 30.11 in 10.0 mi SW 6.9 mph - N/A   Mostly Cloudy
3:35 AM -13.0 °F -28.6 °F -20.2 °F 70% 30.11 in 10.0 mi SW 6.9 mph - N/A   Scattered Clouds
3:55 AM -14.8 °F -29.1 °F -20.2 °F 77% 30.10 in 10.0 mi SW 5.8 mph - N/A   Clear
4:15 AM -13.0 °F -27.0 °F -20.2 °F 70% 30.10 in 10.0 mi SW 5.8 mph - N/A   Clear
4:35 AM -14.8 °F -27.2 °F -20.2 °F 77% 30.10 in 10.0 mi SW 4.6 mph - N/A   Clear
4:55 AM -14.8 °F -24.8 °F -20.2 °F 77% 30.10 in 10.0 mi SW 3.5 mph - N/A   Clear
5:15 AM -14.8 °F - -20.2 °F 77% 30.11 in 10.0 mi Calm Calm - N/A   Clear
5:35 AM -16.6 °F - -27.4 °F 58% 30.11 in 10.0 mi Calm Calm - N/A   Clear
5:55 AM -16.6 °F - -25.6 °F 64% 30.11 in 10.0 mi Calm Calm - N/A   Clear
6:15 AM -16.6 °F - -16.6 °F 100% 30.11 in 10.0 mi Calm Calm - N/A   Clear
6:35 AM -14.8 °F - -25.6 °F 58% 30.12 in 10.0 mi Calm Calm - N/A   Clear
6:55 AM -18.4 °F - - N/A% 30.12 in 10.0 mi Calm Calm - N/A   Partly Cloudy
7:15 AM -18.4 °F - -25.6 °F 70% 30.13 in 10.0 mi Calm Calm - N/A   Partly Cloudy
7:35 AM -18.4 °F - -18.4 °F 100% 30.13 in 10.0 mi Calm Calm - N/A   Clear
7:55 AM -16.6 °F - -27.4 °F 58% 30.13 in 10.0 mi Calm Calm - N/A   Clear
8:15 AM -16.6 °F - -23.8 °F 70% 30.13 in 10.0 mi Calm Calm - N/A   Clear
8:35 AM -16.6 °F - -18.4 °F 92% 30.13 in 10.0 mi Calm Calm - N/A   Clear
8:55 AM -16.6 °F - -25.6 °F 64% 30.14 in 10.0 mi Calm Calm - N/A   Clear
9:15 AM -14.8 °F - -18.4 °F 84% 30.15 in 10.0 mi Calm Calm - N/A   Clear
9:35 AM -11.2 °F -26.4 °F -13.0 °F 92% 30.15 in 10.0 mi SW 6.9 mph - N/A   Clear
9:55 AM -9.4 °F -24.3 °F -16.6 °F 71% 30.16 in 10.0 mi SW 6.9 mph - N/A   Clear
10:15 AM -9.4 °F -24.3 °F -20.2 °F 59% 30.15 in 10.0 mi SW 6.9 mph - N/A   Clear
10:35 AM -7.6 °F -20.6 °F - N/A% 30.15 in 10.0 mi SW 5.8 mph - N/A   Clear
10:55 AM -7.6 °F -23.4 °F -16.6 °F 65% 30.14 in 10.0 mi SW 8.1 mph - N/A   Clear
11:15 AM -5.8 °F -19.9 °F -14.8 °F 65% 30.14 in 10.0 mi SW 6.9 mph - N/A   Clear
11:35 AM -5.8 °F -21.2 °F -11.2 °F 77% 30.12 in 10.0 mi SW 8.1 mph - N/A   Clear
11:55 AM -5.8 °F -18.4 °F -16.6 °F 60% 30.12 in 10.0 mi SW 5.8 mph - N/A   Partly Cloudy
12:15 PM -5.8 °F -19.9 °F -11.2 °F 77% 30.12 in 10.0 mi SW 6.9 mph - N/A   Scattered Clouds
12:35 PM -4.0 °F -16.3 °F -16.6 °F 55% 30.11 in 10.0 mi SW 5.8 mph - N/A   Partly Cloudy
12:55 PM -4.0 °F -14.6 °F -11.2 °F 71% 30.10 in 10.0 mi WSW 4.6 mph - N/A   Partly Cloudy
1:15 PM -4.0 °F -16.3 °F -16.6 °F 55% 30.09 in 10.0 mi West 5.8 mph - N/A   Clear
1:35 PM -2.2 °F -18.0 °F -11.2 °F 66% 30.09 in 10.0 mi West 9.2 mph - N/A   Clear
1:55 PM -2.2 °F -16.8 °F -16.6 °F 50% 30.08 in 10.0 mi West 8.1 mph - N/A   Clear
2:15 PM -2.2 °F -16.8 °F -14.8 °F 55% 30.08 in 10.0 mi West 8.1 mph - N/A   Clear
2:35 PM -2.2 °F -14.2 °F -14.8 °F 55% 30.08 in 10.0 mi West 5.8 mph - N/A   Clear
2:55 PM -2.2 °F -15.6 °F -11.2 °F 66% 30.07 in 10.0 mi West 6.9 mph - N/A   Clear
3:15 PM -2.2 °F -12.5 °F -16.6 °F 50% 30.07 in 10.0 mi West 4.6 mph - N/A   Clear
3:35 PM -4.0 °F -19.0 °F -11.2 °F 71% 30.08 in 10.0 mi West 8.1 mph - N/A   Clear
3:55 PM -4.0 °F -19.0 °F -14.8 °F 60% 30.08 in 10.0 mi West 8.1 mph - N/A   Clear
4:15 PM -2.2 °F -14.2 °F -11.2 °F 66% 30.07 in 10.0 mi West 5.8 mph - N/A   Clear
4:35 PM -2.2 °F -12.5 °F -13.0 °F 60% 30.07 in 10.0 mi WSW 4.6 mph - N/A   Clear
4:55 PM -4.0 °F -14.6 °F -14.8 °F 60% 30.07 in 10.0 mi SW 4.6 mph - N/A   Clear
5:15 PM -5.8 °F -14.5 °F -11.2 °F 77% 30.07 in 10.0 mi SW 3.5 mph - N/A   Clear
5:35 PM -5.8 °F -16.7 °F -16.6 °F 60% 30.07 in 10.0 mi WSW 4.6 mph - N/A   Clear
5:55 PM -5.8 °F -16.7 °F -7.6 °F 92% 30.07 in 10.0 mi WSW 4.6 mph - N/A   Clear
6:15 PM -5.8 °F -18.4 °F -16.6 °F 60% 30.07 in 10.0 mi WSW 5.8 mph - N/A   Clear
6:35 PM -5.8 °F -18.4 °F -9.4 °F 84% 30.07 in 10.0 mi WSW 5.8 mph - N/A   Clear
6:55 PM -5.8 °F -19.9 °F -14.8 °F 65% 30.07 in 10.0 mi WSW 6.9 mph - N/A   Clear
7:15 PM -5.8 °F -19.9 °F -13.0 °F 71% 30.08 in 10.0 mi WSW 6.9 mph - N/A   Clear
7:35 PM -5.8 °F -18.4 °F -14.8 °F 65% 30.08 in 10.0 mi WSW 5.8 mph - N/A   Clear
7:55 PM -7.6 °F -22.1 °F -14.8 °F 71% 30.08 in 10.0 mi WSW 6.9 mph - N/A   Clear
8:15 PM -7.6 °F -18.8 °F -14.8 °F 71% 30.08 in 10.0 mi WSW 4.6 mph - N/A   Clear
8:35 PM -7.6 °F -18.8 °F -14.8 °F 71% 30.07 in 10.0 mi SW 4.6 mph - N/A   Clear
8:55 PM -9.4 °F -22.7 °F -18.4 °F 65% 30.07 in 10.0 mi WSW 5.8 mph - N/A   Clear
9:15 PM -9.4 °F -26.8 °F -9.4 °F 100% 30.06 in 10.0 mi WSW 9.2 mph - N/A   Clear
9:35 PM -9.4 °F -25.6 °F -14.8 °F 77% 30.06 in 10.0 mi WSW 8.1 mph - N/A   Clear
9:55 PM -9.4 °F -25.6 °F -16.6 °F 71% 30.06 in 10.0 mi WSW 8.1 mph - N/A   Clear
10:15 PM -9.4 °F -26.8 °F -9.4 °F 100% 30.06 in 10.0 mi WSW 9.2 mph - N/A   Clear
10:35 PM -9.4 °F -25.6 °F -16.6 °F 71% 30.05 in 10.0 mi WSW 8.1 mph - N/A   Clear
10:55 PM -9.4 °F -25.6 °F -14.8 °F 77% 30.05 in 5.0 mi WSW 8.1 mph - N/A   Clear
11:15 PM -9.4 °F -24.3 °F -13.0 °F 84% 30.05 in 9.0 mi WSW 6.9 mph - N/A   Clear
11:35 PM -9.4 °F -24.3 °F -20.2 °F 59% 30.05 in 10.0 mi West 6.9 mph - N/A   Partly Cloudy
11:55 PM -9.4 °F -26.8 °F -11.2 °F 92% 30.04 in 8.0 mi WSW 9.2 mph - N/A   Mostly Cloudy